sat.trackr.live / text

‹ back to catalog

STARLINK-34077

NORAD 64009 · 2025-101R

PAYLOAD ACTIVE UNKNOWN

§ Identity

Operator
Country
US
Launch date
2025-05-14
Launch site
AFETR
Launch vehicle
Mass (kg)
RCS (m²)

Purposes: comms

External: N2YO · Heavens-Above · Gunter

§ Orbital elements

Epoch: 2026-09-20T06:01:37.102368Z

Period
94.27 min
Inclination
43.0019°
Eccentricity
0.0001573
Mean motion
15.27603183 rev/d
Perigee alt
481.9 km
Apogee alt
484.1 km
Semi-major
6,861.1 km
B*
4.1345e-4
RAAN
338.9422°
Arg perigee
152.8875°
Mean anomaly
207.2059°
Rev number
7,681

§ Raw data

STARLINK-340771 64009U 25101R   26263.25112387  .00011140  00000+0  41345-3 0  99922 64009  43.0019 338.9422 0001573 152.8875 207.2059 15.27603183 76814

JSON: /api/v1/satellites/64009 · /tle

For live sub-satellite position, see the globe view (requires WebGL).

§ Visibility from observer

Set your observer location to see the next 7 days of passes ≥ 10°. The values pass through the URL so the page stays shareable.

No JS? Fill the form by hand. The geolocation button needs JavaScript.